N3EYQ Weather Reports


Display with metric or nautical units.
time (UTC)temp
F
wind
direction
speed
MPH
gust
MPH
rain 1hr
in
rain 24hr
in
rain mn
in
humidity
%
barometer
mb
20260504050021 39 0 0.0 0.0 0.00 0.00 0.00 71 1012.0
20260504045020 39 0 0.0 0.0 0.00 0.00 0.00 71 1012.0
20260504044020 40 0 0.0 0.0 0.00 0.00 0.00 70 1012.0
20260504043020 40 0 0.0 0.0 0.00 0.00 0.00 70 1012.0
20260504042020 40 0 0.0 0.0 0.00 0.00 0.00 69 1012.0
20260504041020 40 0 0.0 0.0 0.00 0.00 0.00 70 1012.0
20260504040020 40 0 0.0 0.0 0.00 0.00 0.00 68 1012.0
20260504035020 40 0 0.0 0.0 0.00 0.00 0.00 68 1012.0
20260504034020 40 0 0.0 0.0 0.00 0.00 0.00 67 1012.0
20260504033019 40 0 0.0 0.0 0.00 0.00 0.00 67 1012.0
20260504032020 41 0 0.0 0.0 0.00 0.00 0.00 66 1012.0
20260504031020 41 0 0.0 0.0 0.00 0.00 0.00 66 1012.0
20260504030019 42 0 0.0 0.0 0.00 0.00 0.00 64 1012.0
20260504025019 42 0 0.0 0.0 0.00 0.00 0.00 64 1011.6
20260504024018 42 0 0.0 0.0 0.00 0.00 0.00 63 1011.6
20260504023018 43 0 0.0 0.0 0.00 0.00 0.00 61 1011.6
20260504022019 43 0 0.0 0.0 0.00 0.00 0.00 60 1011.6
20260504021018 44 0 0.0 0.0 0.00 0.00 0.00 59 1011.6
20260504020018 44 0 0.0 0.0 0.00 0.00 0.00 58 1011.6
20260504015018 45 0 0.0 0.0 0.00 0.00 0.00 57 1011.6
20260504014018 45 0 0.0 0.0 0.00 0.00 0.00 57 1011.6
20260504013018 46 0 0.0 0.0 0.00 0.00 0.00 56 1011.3
20260504012017 46 0 0.0 0.0 0.00 0.00 0.00 54 1011.6
20260504011018 47 0 0.0 0.0 0.00 0.00 0.00 54 1011.6
20260504010017 48 0 0.0 0.0 0.00 0.00 0.00 51 1011.3
20260504005017 49 0 0.0 0.0 0.00 0.00 0.00 49 1011.3
20260504004017 50 0 0.0 0.0 0.00 0.00 0.00 47 1011.3
20260504003018 51 0 0.0 0.0 0.00 0.00 0.00 46 1011.0
20260504002017 52 0 0.0 0.0 0.00 0.00 0.00 44 1011.0
20260504001017 53 0 0.0 0.0 0.00 0.00 0.00 43 1010.6
20260504000017 54 0 0.0 0.0 0.00 0.00 0.00 41 1010.6
20260503235016 55 0 0.0 0.0 0.00 0.00 0.00 39 1010.6
20260503234016 56 0 0.0 0.0 0.00 0.00 0.00 37 1010.3
20260503233016 57 0 0.0 0.0 0.00 0.00 0.00 37 1010.3
20260503232016 57 0 0.0 0.0 0.00 0.00 0.00 35 1010.3
20260503231016 57 0 0.0 0.0 0.00 0.00 0.00 34 1010.3
20260503230017 57 0 0.0 0.0 0.00 0.00 0.00 34 1010.3
20260503225016 58 0 0.0 0.0 0.00 0.00 0.00 33 1010.3
20260503224016 58 0 0.0 0.0 0.00 0.00 0.00 32 1010.0
20260503223015 58 0 0.0 0.0 0.00 0.00 0.00 31 1010.0
20260503222015 58 0 0.0 0.0 0.00 0.00 0.00 31 1010.0
20260503221015 58 0 0.0 0.0 0.00 0.00 0.00 30 1010.0
20260503220015 59 0 0.0 0.0 0.00 0.00 0.00 29 1010.0
20260503215016 60 0 0.0 0.0 0.00 0.00 0.00 28 1009.6
20260503214016 60 0 0.0 0.0 0.00 0.00 0.00 27 1010.0
20260503213014 60 0 0.0 0.0 0.00 0.00 0.00 27 1009.6
20260503212014 60 0 0.0 0.0 0.00 0.00 0.00 28 1009.6
20260503211016 60 0 0.0 0.0 0.00 0.00 0.00 28 1009.6
20260503210015 60 0 0.0 0.0 0.00 0.00 0.00 29 1009.6
20260503205014 60 0 0.0 0.0 0.00 0.00 0.00 29 1009.6
20260503204014 60 0 0.0 0.0 0.00 0.00 0.00 30 1009.6
20260503203014 60 0 0.0 0.0 0.00 0.00 0.00 29 1010.0
20260503202015 60 0 0.0 0.0 0.00 0.00 0.00 31 1010.0
20260503201014 59 0 0.0 0.0 0.00 0.00 0.00 31 1010.0
20260503200013 59 0 0.0 0.0 0.00 0.00 0.00 31 1010.0
20260503195013 59 0 0.0 0.0 0.00 0.00 0.00 32 1010.0
20260503194013 58 0 0.0 0.0 0.00 0.00 0.00 31 1010.0
20260503193013 58 0 0.0 0.0 0.00 0.00 0.00 32 1010.3
20260503192013 56 0 0.0 0.0 0.00 0.00 0.00 33 1010.6
20260503191013 57 0 0.0 0.0 0.00 0.00 0.00 34 1010.6
20260503190013 57 0 0.0 0.0 0.00 0.00 0.00 34 1011.0
20260503185013 57 0 0.0 0.0 0.00 0.00 0.00 34 1011.0
20260503184012 57 0 0.0 0.0 0.00 0.00 0.00 37 1011.0
20260503183012 57 0 0.0 0.0 0.00 0.00 0.00 35 1011.0
20260503182012 57 0 0.0 0.0 0.00 0.00 0.00 37 1011.3
20260503181012 56 0 0.0 0.0 0.00 0.00 0.00 36 1011.3
20260503180012 55 0 0.0 0.0 0.00 0.00 0.00 37 1011.3
20260503175011 55 0 0.0 0.0 0.00 0.00 0.00 37 1011.3
20260503174012 54 0 0.0 0.0 0.00 0.00 0.00 39 1011.6
20260503173011 54 0 0.0 0.0 0.00 0.00 0.00 37 1011.6
20260503172011 54 0 0.0 0.0 0.00 0.00 0.00 39 1011.6
20260503171011 54 0 0.0 0.0 0.00 0.00 0.00 41 1011.6
20260503151009 52 0 0.0 0.0 0.00 0.00 0.00 42 1012.0
20260503131008 49 0 0.0 0.0 0.00 0.00 0.00 52 1012.0
20260503081004 36 0 0.0 0.0 0.00 0.00 0.00 73 1011.6
20260503072004 37 0 0.0 0.0 0.00 0.00 0.00 70 1011.6
20260503071003 38 0 0.0 0.0 0.00 0.00 0.00 70 1011.6